[[{"header":{"parameterUnit":"m.s-1","parameterCategory":1,"la1":30.2992,"la2":30.254,"lo1":-89.0895,"lo2":-89.0443,"dy":0.0025,"dx":0.0025,"nx":19,"ny":19,"refTime":"2026-03-30T09:00:00:Z","depth":0,"parameterNumber":2,"parameterNumberName":"U-component_of_WINDS"},"data":[0,0,0,-6.4206,-6.4208,-6.4314,-6.4314,-6.4458,-6.446,0,0,0,0,0,0,0,0,0,0,0,-6.4181,-6.4182,-6.4206,-6.4209,-6.4314,-6.4314,-6.4458,-6.446,0,0,0,0,0,0,0,0,0,0,0,-6.418,-6.4182,-6.4183,-6.4209,-6.4314,-6.4314,-6.4458,-6.4375,0,0,0,0,0,0,0,0,0,0,-6.4271,-6.4254,-6.4182,-6.4183,-6.421,-6.4313,-6.4314,-6.4371,-6.438,-6.4415,0,-6.4449,0,-6.4457,-6.447,-6.4471,0,0,0,-6.4203,-6.4246,-6.4269,-6.4184,-6.4211,-6.4313,-6.4265,-6.4376,-6.4386,-6.4428,-6.4451,-6.4456,-6.4459,-6.4471,-6.4472,-6.4694,-6.4696,0,0,-6.4198,-6.4203,-6.4262,-6.4276,-6.4262,-6.4261,-6.4268,-6.4382,-6.4407,-6.4451,-6.4459,-6.4462,-6.4472,-6.4473,-6.4693,-6.4695,0,0,0,-6.4184,-6.4199,-6.4219,-6.4271,-6.4289,-6.4265,-6.4272,-6.4402,-6.4408,-6.446,-6.4463,-6.4473,-6.4475,-6.4692,-6.4694,-6.476,0,0,0,-6.4181,-6.4191,-6.4217,-6.4221,-6.4287,-6.4347,-6.429,-6.44,-6.4413,-6.4463,-6.4473,-6.4477,-6.469,-6.4693,-6.4755,-6.4788,0,0,0,-6.4172,-6.419,-6.4208,-6.4221,-6.4267,-6.4345,-6.4357,-6.4403,-6.4415,-6.4471,-6.4477,-6.4689,-6.4692,-6.475,-6.4781,-6.4846,0,0,0,-6.4163,-6.4264,-6.4209,-6.4323,-6.4266,-6.4387,-6.4357,-6.4446,-6.4502,-6.4474,-6.469,-6.4693,-6.4749,-6.4777,-6.4842,-6.4899,-6.4925,0,0,-6.4293,-6.428,-6.4347,-6.4301,-6.4432,-6.437,-6.4512,-6.4558,-6.4559,-6.4649,-6.4654,-6.4756,-6.4781,-6.4845,-6.5074,-6.5094,0,0,0,-6.439,-6.4438,-6.4472,-6.4526,-6.4566,-6.4602,-6.4627,-6.4645,-6.4722,-6.4607,-6.48,-6.4814,-6.4852,-6.4879,-6.4896,-6.4927,-6.4707,-6.4707,-6.4707,-6.4576,-6.4574,-6.4685,-6.4696,-6.475,-6.4777,-6.482,-6.4848,-6.4829,-6.4876,-6.49,-6.5039,-6.5071,-6.5084,-6.5116,-6.4934,-6.4935,-6.4935,-6.4935,-6.4763,-6.4828,-6.4805,-6.4903,-6.4901,-6.4983,-6.5015,-6.5,-6.5075,-6.502,-6.5053,-6.4987,-6.5106,-6.5134,-6.494,-6.4939,-6.4939,-6.4938,-6.4938,-6.488,-6.4911,-6.4934,-6.5015,-6.5078,-6.5087,-6.5162,-6.5158,-6.5155,-6.5189,-6.5213,-6.5212,-6.5207,-6.5202,-6.5202,-6.5203,-6.5203,-6.5204,-6.5204,-6.499,-6.5014,-6.5078,-6.5132,-6.5168,-6.5215,-6.5247,-6.5282,-6.532,-6.5311,-6.5311,-6.5286,-6.5121,-6.5076,-6.5211,-6.521,-6.5209,-6.5208,-6.5208,-6.5171,-6.5131,-6.5229,-6.5265,-6.533,-6.5392,-6.539,-6.5463,-6.5492,-6.5529,-6.55,-6.538,-6.5364,-6.5351,-6.5313,-6.5502,-6.5502,-6.5502,-6.5502,-6.5266,-6.5261,-6.5361,-6.542,-6.5477,-6.5486,-6.5597,-6.5625,-6.5647,-6.5665,-6.5639,-6.5592,-6.5578,-6.5571,-6.5553,-6.5517,-6.5754,-6.5754,-6.5754,-6.5376,-6.5377,-6.547,-6.5493,-6.5545,-6.559,-6.5694,-6.5762,-6.5779,-6.5764,-6.5679,-6.5668,-6.5592,-6.5568,-6.5543,-6.5514,-6.545,0,0]},{"header":{"parameterUnit":"m.s-1","parameterCategory":1,"la1":30.2992,"la2":30.254,"lo1":-89.0895,"lo2":-89.0443,"dy":0.0025,"dx":0.0025,"nx":19,"ny":19,"refTime":"2026-03-30T09:00:00:Z","depth":0,"parameterNumber":3,"parameterNumberName":"V-component_of_WINDS"},"data":[0,0,0,3.604,3.6041,3.6101,3.6101,3.6161,3.6162,0,0,0,0,0,0,0,0,0,0,0,3.6013,3.6013,3.604,3.6041,3.6101,3.6102,3.6161,3.6162,0,0,0,0,0,0,0,0,0,0,0,3.6013,3.6013,3.6013,3.6042,3.6101,3.6102,3.6161,3.6122,0,0,0,0,0,0,0,0,0,0,3.6066,3.6032,3.6013,3.6013,3.6042,3.6101,3.6102,3.612,3.6124,3.6127,0,3.6128,0,3.6146,3.6165,3.6165,0,0,0,3.6048,3.6028,3.6053,3.6013,3.6042,3.6101,3.6076,3.6122,3.6127,3.6132,3.6129,3.6132,3.6147,3.6165,3.6165,3.6165,3.6164,0,0,3.6045,3.6018,3.605,3.6056,3.6047,3.6074,3.6078,3.6126,3.6119,3.6129,3.6133,3.6148,3.6165,3.6166,3.6165,3.6164,0,0,0,3.6031,3.6015,3.604,3.6053,3.6065,3.6076,3.608,3.6117,3.6128,3.6134,3.6149,3.6165,3.6166,3.6165,3.6165,3.6124,0,0,0,3.6029,3.6007,3.6038,3.6022,3.6064,3.6092,3.607,3.6124,3.6131,3.6148,3.6165,3.6166,3.6166,3.6165,3.6126,3.6109,0,0,0,3.6012,3.6005,3.6011,3.602,3.6045,3.6092,3.6105,3.6126,3.6139,3.6165,3.6167,3.6166,3.6165,3.6128,3.6112,3.6102,0,0,0,3.5986,3.5972,3.601,3.6,3.6045,3.6067,3.6105,3.6123,3.614,3.6166,3.6166,3.6165,3.6128,3.6113,3.6103,3.6088,3.608,0,0,3.5953,3.5967,3.5963,3.5999,3.6008,3.606,3.6063,3.6103,3.6129,3.6151,3.6151,3.6125,3.6112,3.6102,3.6041,3.6034,0,0,0,3.5944,3.5941,3.5949,3.5966,3.5998,3.6024,3.6067,3.6083,3.6104,3.6135,3.612,3.6113,3.6108,3.6102,3.6096,3.6094,3.6161,3.6161,3.6161,3.5857,3.5894,3.5891,3.5936,3.5952,3.5999,3.6015,3.6043,3.6073,3.6069,3.6076,3.6035,3.6027,3.6022,3.602,3.6071,3.6071,3.6071,3.6071,3.5812,3.5815,3.5859,3.5873,3.5912,3.5923,3.5968,3.599,3.6006,3.6032,3.603,3.6054,3.6014,3.6013,3.6068,3.6069,3.6069,3.6069,3.6069,3.5759,3.5767,3.5788,3.5819,3.5838,3.5884,3.5898,3.5933,3.5965,3.5963,3.5975,3.5975,3.598,3.5966,3.5966,3.5966,3.5966,3.5966,3.5966,3.5695,3.5721,3.573,3.5766,3.5783,3.5809,3.5859,3.5876,3.5904,3.5928,3.5928,3.5959,3.6003,3.6013,3.5964,3.5964,3.5964,3.5965,3.5965,3.5635,3.5656,3.5669,3.5686,3.5733,3.5751,3.5797,3.5829,3.5849,3.5855,3.5888,3.5915,3.5931,3.5936,3.5945,3.588,3.588,3.588,3.588,3.559,3.5603,3.5627,3.5653,3.5682,3.5726,3.5741,3.578,3.5823,3.5837,3.5852,3.5867,3.587,3.5884,3.589,3.5899,3.5824,3.5824,3.5824,3.5556,3.5574,3.558,3.5625,3.5665,3.5698,3.5714,3.5741,3.5794,3.5822,3.585,3.5852,3.5876,3.5882,3.5909,3.5917,3.5934,0,0]}]]